Tracking 29892 objects as of 21-Nov-2024
HD Live streaming from Space Station
objects crossing your sky now

DELTA 1 DEB

Track DELTA 1 DEB now!
10-day predictions


NORAD ID: 27575
Int'l Code: 1977-065GE
Perigee: 625.9 km
Apogee: 1,286.3 km
Inclination: 29.1 °
Period: 104.0 minutes
Semi major axis: 7327 km
RCS: 0.0284 m2 (small)
Launch date: July 14, 1977
Source: United States (US)
Launch site: AIR FORCE EASTERN TEST RANGE (AFETR)

Note: This is SATELLITE DEBRIS
Your satellite tracking list
Your tracking list is empty




NASA's NSSDC Master Catalog

Two Line Element Set (TLE):
1 27575U 77065GG  24325.26131465  .00004385  00000-0  17134-2 0  9993
2 27575  29.1183 279.2662 0450650 174.6267 329.3154 13.84211011311788
Source of the keplerian elements: AFSPC